Location: Saint-Hippolyte
(43.6394°N, 4.7559°E)
Time: 15:28:33
(UTC+00:00)

Okean-O - Pass Details

Date: 24 October 2020
Orbit: 638 x 641 km, 98.2° (Epoch: 24 November)

Event Time Altitude Azimuth Distance (km) Brightness Sun altitude
Rises 17:37:50 0° 148° (SSE) 2,934 5.8 -10.6°
Reaches altitude 10° 17:40:06 10° 141° (SE) 2,029 4.9 -11.0°
Maximum altitude 17:44:16 43° 71° (ENE) 905 3.0 -11.8°
Drops below altitude 10° 17:48:29 10° 360° (N) 2,043 5.2 -12.5°
Sets 17:50:46 0° 354° (N) 2,957 6.1 -12.9°
